Terminal Aerodrome Forecast
Issued by NWS

Home | Current Version | Previous Version | Text Only | Print | Product List | Glossary On
Versions: 1 2 3 4 5 6 7 8 9 10 11 12 13 14 15 16 17 18 19 20 21 22 23 24
000
FTUS45 KSLC 272329
TAFSGU
TAF
KSGU 272329Z 2800/2824 25009KT P6SM SCT060 BKN120
     FM280600 VRB05KT P6SM VCSH SCT030 BKN050
     FM281900 21007KT P6SM VCSH BKN040
      AMD LTD TO CLD VIS AND WIND=

USA.gov is the U.S. government's official web portal to all federal, state and local government web resources and services.